轨道通信卫星FM09星 (ORBCOMM FM09)

导读

ORBCOMM FM 9是ORBCOMM低轨卫星星座中的一颗卫星,由ORB(轨道通信公司)于1997年12月23日发射入轨。作为全球低轨物联网通信星座的组成部分,它运行于近地轨道,依托VHF/UHF频段提供窄带数据传输服务,面向机器对机器通信场景,支撑全球范围的低成本物联网连接,助力偏远地区设备监控、船舶通信等应用。

Basic Information
目录编号:
25116
目录名称:
ORBCOMM FM 9
国际标识:
1997-084E
轨道中心:
EARTH
卫星名称:
轨道通信卫星FM09星
卫星全名:
轨道通信卫星FM09星 (ORBCOMM FM09)
卫星状态:
在轨 (已飞行10493 天)
发射日期:
1997-12-23 UTC
国别 :
(ORB)
星等 :
--
This satellite is enrolled in the Space Conjunction Data Service (SCDS) and the current flight risk assessment level is: No High Risk
Orbit Information
数据来源 国际轨道数据 AOE轨道数据
星历时间 2026-09-15T15:11:11+0800
14小时前
查看轨道信息
2026-09-15T07:00:00+0800
23小时前
查看轨道信息
半长轴 7114.578km 7114.589km
偏心率 0.0004518 0.0004558
轨道倾角 45.016° 45.015°
近地点辐角 329.778° 328.034°
升交点赤经 345.965° 347.606°
平近点角 30.281° 53.786°
近地点 733.226km 733.209km
远地点 739.656km 739.695km
周期 99.537分钟 99.537分钟
每日圈数 14.467019 14.466986
Detailed Information
固有亮度:
8
最大亮度:
6.9
平衡模式:
三轴稳定
覆盖范围:
全球
运营商:
轨道通信公司
运营商所在国:
美国
制造商(研发单位):
轨道ATK公司
制造商所在国:
美国
使用方式:
暂无
Satellite Introduction
轨道通信FM(Orbcomm FM)是一系列低地球轨道通信卫星,由美国卫星通信公司 Orbcomm运营。 截至2015年12月,已有63颗此类卫星绕地球运行。该卫星已退役。
2D Orbit Map
3D Orbit Map
Orbit Altitude Analysis Chart
Orbit Inclination Analysis Chart
Orbit Comprehensive Analysis Chart
View Comprehensive Chart
Conjunction Data List
Event ID Objects TCA Miss Dist (km) Collision Risk Probability Collision Risk Index (CRI) Action
CDM_260917-122402-511602-991222
2026-09-17T
12:24:21+0000
1.370 km
极远距离
5.84061E-6 低风险 0.5
CDM_260910-031702-511603-165621
2026-09-10T
03:17:58+0000
1.613 km
极远距离
4.543876E-6 低风险 0.48
CDM_260916-120302-511605-449825
2026-09-16T
12:03:51+0000
2.665 km
极远距离
1.040805E-6 低风险 0.35
CDM_260911-035900-359702-511627
OAO 2 (3597)
2026-09-11T
03:59:31+0000
2.359 km
极远距离
9.983374E-7 极低风险 0.35
Miss Distance Evolution Trend with All Objects Subscribe to Flight Safety Assessment
Collision Probability Evolution Trend with All Objects Subscribe to Flight Safety Assessment